Date,TemperatureHighF,TemperatureAvgF,TemperatureLowF,DewpointHighF,DewpointAvgF,DewpointLowF,HumidityHigh,HumidityAvg,HumidityLow,PressureMaxIn,PressureMinIn,WindSpeedMaxMPH,WindSpeedAvgMPH,GustSpeedMaxMPH,PrecipitationSumIn
2013-8-1,89,82,76,82,12,-100,103,59,68,0.00,40.00,13,8,0,0.38
2013-8-2,86,80,73,81,4,-100,102,53,76,0.00,40.00,11,6,0,0.00
2013-8-3,88,85,78,83,50,-100,100,68,72,0.00,40.00,10,6,0,0.00
2013-8-4,92,85,79,80,48,-100,98,64,58,0.00,40.00,12,6,0,0.15
2013-8-5,90,81,77,82,-21,-100,94,36,74,0.00,40.00,13,5,0,0.42
2013-8-6,89,83,75,81,5,-100,102,50,70,0.00,40.00,16,6,0,0.00
2013-8-7,87,83,76,83,14,-100,104,59,82,0.00,40.00,13,5,0,0.01
2013-8-8,87,84,79,83,32,-100,97,61,78,0.00,40.00,14,8,0,0.00
2013-8-9,86,85,78,81,72,-100,91,80,79,0.00,40.00,18,12,0,0.10
2013-8-10,85,84,83,79,77,75,87,79,74,0.00,40.00,16,11,0,0.00
2013-8-11,85,84,80,81,79,77,94,84,77,0.00,40.00,15,10,0,0.01
2013-8-21,84,80,76,80,-11,-100,99,43,76,0.00,40.00,12,8,0,0.00
2013-8-22,84,80,75,80,17,-100,98,57,75,0.00,40.00,15,9,0,0.01
2013-8-23,81,79,77,79,40,-100,98,74,86,0.00,40.00,13,9,0,0.00
2013-8-24,79,76,74,75,-93,-100,102,8,88,0.00,40.00,16,7,0,0.69
2013-8-25,81,78,73,78,-10,-100,97,46,81,0.00,40.00,16,10,0,0.48
2013-8-26,82,79,75,77,35,-100,96,61,65,0.00,40.00,15,10,0,0.00
2013-8-27,81,76,71,72,70,68,97,84,65,0.00,40.00,9,6,0,0.00
2013-8-29,86,80,73,75,15,-100,104,56,59,0.00,40.00,9,5,0,0.00
2013-8-30,88,81,74,77,38,-100,97,60,59,0.00,40.00,11,6,0,0.00
2013-8-31,87,81,76,80,70,-100,102,87,67,0.00,40.00,13,6,0,0.00